Flag for Lithuania Weather past 2 weeks in Kaunas, Lithuania

Now
54 °F

Passing clouds.


Feels Like: 53 °F
Forecast: 54 / 72 °F
Wind: 5 mph from South

Location: Kaunas

Current Time: Apr 27, 2015 at 9:16:29 AM

Latest Report: Apr 27, 2015 at 8:20 AM


Visibility: N/A

Pressure: 29.77 "Hg

Humidity: 77%

Dew point: 46 °F

Location of KaunasLocation

Historic Weather in Kaunas — Graph

°F

Kaunas temperature yesterday

Maximum temperature yesterday: 68 °F (at 2:20 PM)
Minimum temperature yesterday: 50 °F (at 2:50 AM)
Average temperature yesterday: 57 °F

Past Weeks' High & Low Weather Summary

 TemperatureHumidityPressure
High68 °F (Apr 25, 2:20 PM)93% (Apr 12, 9:50 AM)30.18 "Hg (Apr 12, 9:50 AM)
Low30 °F (Apr 22, 6:50 AM)14% (Apr 14, 4:20 PM)29.36 "Hg (Apr 16, 4:50 AM)
Average46 °F63%29.84 "Hg
* Reported Apr 12 8:20 AM — Apr 27 8:20 AM, Kaunas, Weather by CustomWeather, © 2015

Note: Actual official high and low records may vary slightly from our data, if they occured in-between our weather recording intervals... More about our weather records

Advertising

Kaunas weather history for previous 24 hours

 ConditionsComfort  
Time TempWeatherWind HumidityBarometerVisibility
8:20 AM
Mon, Apr 27
54 °FPassing clouds.5 mph77%29.77 "HgN/A
7:50 AM50 °FPassing clouds.3 mph82%29.77 "HgN/A
7:20 AM50 °FSunny.5 mph88%29.77 "Hg10 mi
6:20 AM45 °FClear.2 mph93%29.77 "Hg6 mi
5:50 AM45 °FClear.1 mph93%29.77 "Hg10 mi
5:20 AM46 °FClear.1 mph87%29.77 "Hg10 mi
4:50 AM46 °FClear.1 mph93%29.77 "Hg10 mi
4:20 AM46 °FClear.1 mph93%29.77 "Hg10 mi
3:50 AM46 °FClear.No wind87%29.77 "Hg10 mi
3:20 AM46 °FMostly cloudy.No wind93%29.77 "HgN/A
2:50 AM48 °FMostly cloudy.1 mph87%29.77 "HgN/A
2:20 AM46 °FMostly cloudy.2 mph87%29.77 "HgN/A
1:50 AM46 °FOvercast.1 mph87%29.74 "HgN/A
1:20 AM45 °FPassing clouds.No wind93%29.77 "HgN/A
12:50 AM48 °FCool.2 mph82%29.77 "HgN/A
12:20 AM48 °FPassing clouds.3 mph82%29.74 "HgN/A
11:50 PM
Sun, Apr 26
50 °FClear.No wind82%29.74 "Hg10 mi
11:20 PM50 °FClear.5 mph76%29.74 "Hg10 mi
10:50 PM52 °FClear.3 mph72%29.74 "Hg10 mi
10:20 PM52 °FClear.5 mph77%29.74 "Hg10 mi
9:50 PM54 °FPassing clouds.5 mph67%29.74 "HgN/A
9:20 PM54 °FSunny.5 mph67%29.74 "Hg10 mi
8:50 PM57 °FPassing clouds.8 mph59%29.74 "HgN/A
8:20 PM59 °FPassing clouds.7 mph55%29.71 "HgN/A
7:50 PM61 °FPassing clouds.9 mph52%29.71 "HgN/A
7:20 PM61 °FPassing clouds.8 mph52%29.71 "HgN/A
6:50 PM61 °FPassing clouds.12 mph52%29.71 "HgN/A
6:20 PM63 °FScattered clouds.16 mph49%29.71 "HgN/A
5:50 PM64 °FBroken clouds.16 mph46%29.71 "HgN/A
5:20 PM63 °FBroken clouds.15 mph49%29.71 "HgN/A
4:50 PM63 °FBroken clouds.18 mph49%29.68 "HgN/A
4:20 PM64 °FPartly sunny.16 mph46%29.68 "HgN/A
3:50 PM63 °FMore clouds than sun.17 mph49%29.68 "HgN/A
3:20 PM64 °FMore clouds than sun.17 mph43%29.68 "HgN/A
2:50 PM66 °FPassing clouds.16 mph37%29.68 "HgN/A
2:20 PM68 °FPassing clouds.13 mph38%29.65 "HgN/A
1:50 PM66 °FSunny.14 mph40%29.65 "Hg10 mi
1:20 PM64 °FPassing clouds.13 mph43%29.65 "HgN/A
12:50 PM63 °FPassing clouds.12 mph45%29.65 "HgN/A
12:20 PM61 °FPassing clouds.13 mph48%29.65 "HgN/A
11:50 AM61 °FPassing clouds.9 mph52%29.65 "HgN/A
11:20 AM57 °FPassing clouds.9 mph59%29.65 "HgN/A
10:50 AM57 °FPassing clouds.6 mph59%29.65 "HgN/A
10:20 AM57 °FLight rain. Clear.7 mph55%29.65 "HgN/A
9:50 AM57 °FPassing clouds.7 mph55%29.65 "HgN/A
9:20 AM57 °FPassing clouds.5 mph55%29.65 "HgN/A
Weather by CustomWeather, © 2015

See weather overviewHow to use our weather pages